When you browse on this site, cookies collect data to enhance your experience and personalize the content and advertising you see.
Visit our Privacy Policy to learn more. By continuing to use the site, you agree to this use of cookies and data.
  • în România
  • Lista ţărilor
  • Pe 7 zile
  • Temperatura apei
  • Hartă satelitară
  • Meteo pe hartă
  • Widget-uri
  • user-avatar
    Intrare

    Meteo pe oră la Roman

    Astăzi, 18 Aprilie, Joi

    Timp Temperatura Precipitaţii Vânt Presiune Umiditate
    00:00 +7°C° 0.1 mm 2 m/s 751 mmHg 93%
    01:00 +7°C° 0.1 mm 2 m/s 751 mmHg 95%
    02:00 +8°C° 0 mm 2 m/s 751 mmHg 97%
    03:00 +8°C° 0.6 mm 2 m/s 751 mmHg 96%
    04:00 +8°C° 0.6 mm 3 m/s 751 mmHg 96%
    05:00 +7°C° 0.6 mm 4 m/s 752 mmHg 95%
    06:00 +7°C° 0.3 mm 4 m/s 752 mmHg 93%
    07:00 +7°C° 0.3 mm 4 m/s 752 mmHg 90%
    08:00 +7°C° 0 mm 4 m/s 753 mmHg 88%
    09:00 +8°C° 0.1 mm 4 m/s 753 mmHg 83%
    10:00 +10°C° 0.1 mm 4 m/s 753 mmHg 77%
    11:00 +11°C° 0.1 mm 3 m/s 753 mmHg 72%
    12:00 +11°C° 0.2 mm 4 m/s 753 mmHg 69%
    13:00 +12°C° 0.2 mm 4 m/s 753 mmHg 67%
    14:00 +12°C° 0 mm 4 m/s 753 mmHg 62%
    15:00 +12°C° 0.1 mm 4 m/s 753 mmHg 61%
    16:00 +13°C° 0.1 mm 4 m/s 753 mmHg 60%
    17:00 +13°C° 0.1 mm 5 m/s 753 mmHg 59%
    18:00 +11°C° 0 mm 4 m/s 753 mmHg 65%
    19:00 +10°C° 0 mm 3 m/s 753 mmHg 71%
    20:00 +8°C° 0 mm 2 m/s 753 mmHg 76%
    21:00 +8°C° 0 mm 2 m/s 753 mmHg 78%
    22:00 +7°C° 0 mm 2 m/s 753 mmHg 80%
    23:00 +7°C° 0 mm 2 m/s 753 mmHg 82%

    Mâine, 19 Aprilie, Vineri

    Timp Temperatura Precipitaţii Vânt Presiune Umiditate
    00:00 +7°C° 0 mm 2 m/s 753 mmHg 82%
    01:00 +6°C° 0 mm 2 m/s 752 mmHg 83%
    02:00 +6°C° 0 mm 2 m/s 752 mmHg 83%
    03:00 +7°C° 0.1 mm 2 m/s 752 mmHg 82%
    04:00 +7°C° 0.1 mm 2 m/s 751 mmHg 81%
    05:00 +7°C° 0.1 mm 2 m/s 751 mmHg 80%
    06:00 +7°C° 0.4 mm 4 m/s 751 mmHg 77%
    07:00 +9°C° 0.4 mm 6 m/s 751 mmHg 74%
    08:00 +10°C° 0.4 mm 7 m/s 751 mmHg 70%
    09:00 +11°C° 0.6 mm 8 m/s 751 mmHg 64%
    10:00 +11°C° 0.6 mm 8 m/s 751 mmHg 58%
    11:00 +12°C° 0.6 mm 9 m/s 751 mmHg 52%
    12:00 +12°C° 0.4 mm 8 m/s 751 mmHg 53%
    13:00 +12°C° 0.4 mm 8 m/s 751 mmHg 54%
    14:00 +12°C° 0.4 mm 8 m/s 751 mmHg 55%
    15:00 +13°C° 0.2 mm 6 m/s 751 mmHg 56%
    16:00 +12°C° 0.2 mm 5 m/s 752 mmHg 58%
    17:00 +11°C° 0.2 mm 3 m/s 752 mmHg 59%
    18:00 +10°C° 0.1 mm 2 m/s 752 mmHg 63%
    19:00 +10°C° 0.1 mm 1 m/s 753 mmHg 68%
    20:00 +8°C° 0.1 mm 0 m/s 753 mmHg 72%
    21:00 +8°C° 0.1 mm 0 m/s 753 mmHg 75%
    22:00 +7°C° 0.1 mm 0 m/s 753 mmHg 79%
    23:00 +7°C° 0.1 mm 0 m/s 754 mmHg 82%

    Poimâine, 20 Aprilie, Sâmbătă

    Timp Temperatura Precipitaţii Vânt Presiune Umiditate
    00:00 +7°C° 0 mm 1 m/s 754 mmHg 85%
    01:00 +6°C° 0 mm 2 m/s 754 mmHg 88%
    02:00 +5°C° 0 mm 2 m/s 754 mmHg 91%
    03:00 +5°C° 0 mm 2 m/s 754 mmHg 91%
    04:00 +4°C° 0 mm 2 m/s 754 mmHg 92%
    05:00 +4°C° 0 mm 2 m/s 754 mmHg 92%
    06:00 +4°C° 0 mm 3 m/s 754 mmHg 85%
    07:00 +7°C° 0 mm 3 m/s 754 mmHg 77%
    08:00 +8°C° 0 mm 3 m/s 755 mmHg 70%
    09:00 +9°C° 0 mm 3 m/s 754 mmHg 60%
    10:00 +11°C° 0 mm 4 m/s 754 mmHg 51%
    11:00 +12°C° 0 mm 4 m/s 754 mmHg 42%
    12:00 +12°C° 0 mm 3 m/s 754 mmHg 41%
    13:00 +13°C° 0 mm 3 m/s 754 mmHg 41%
    14:00 +13°C° 0 mm 3 m/s 753 mmHg 40%
    15:00 +14°C° 0 mm 2 m/s 753 mmHg 41%
    16:00 +14°C° 0 mm 2 m/s 753 mmHg 41%
    17:00 +14°C° 0 mm 2 m/s 752 mmHg 42%
    18:00 +12°C° 0 mm 1 m/s 753 mmHg 47%
    19:00 +11°C° 0 mm 1 m/s 753 mmHg 51%
    20:00 +8°C° 0 mm 0 m/s 753 mmHg 56%
    21:00 +9°C° 0 mm 1 m/s 753 mmHg 56%
    22:00 +9°C° 0 mm 1 m/s 753 mmHg 56%
    23:00 +10°C° 0 mm 1 m/s 753 mmHg 56%

    21 Aprilie, Duminică

    Timp Temperatura Precipitaţii Vânt Presiune Umiditate
    00:00 +9°C° 0 mm 1 m/s 752 mmHg 59%
    01:00 +8°C° 0 mm 1 m/s 752 mmHg 63%
    02:00 +7°C° 0 mm 1 m/s 752 mmHg 66%
    03:00 +7°C° 0 mm 1 m/s 751 mmHg 68%
    04:00 +7°C° 0 mm 1 m/s 751 mmHg 70%
    05:00 +6°C° 0 mm 1 m/s 751 mmHg 72%
    06:00 +8°C° 0 mm 1 m/s 751 mmHg 68%
    07:00 +9°C° 0 mm 1 m/s 751 mmHg 64%
    08:00 +11°C° 0 mm 1 m/s 751 mmHg 61%
    09:00 +12°C° 0 mm 1 m/s 751 mmHg 56%
    10:00 +14°C° 0 mm 1 m/s 750 mmHg 51%
    11:00 +15°C° 0 mm 2 m/s 750 mmHg 46%
    12:00 +15°C° 0.1 mm 2 m/s 750 mmHg 45%
    13:00 +16°C° 0.1 mm 2 m/s 750 mmHg 43%
    14:00 +16°C° 0.1 mm 3 m/s 749 mmHg 41%
    15:00 +16°C° 0 mm 3 m/s 749 mmHg 43%
    16:00 +16°C° 0 mm 3 m/s 749 mmHg 45%
    17:00 +15°C° 0 mm 4 m/s 749 mmHg 47%
    18:00 +13°C° 0 mm 3 m/s 749 mmHg 54%
    19:00 +11°C° 0 mm 3 m/s 749 mmHg 61%
    20:00 +10°C° 0 mm 3 m/s 749 mmHg 67%
    21:00 +9°C° 0 mm 3 m/s 750 mmHg 70%
    22:00 +8°C° 0 mm 3 m/s 750 mmHg 74%
    23:00 +8°C° 0 mm 3 m/s 750 mmHg 77%

    22 Aprilie, Luni

    Timp Temperatura Precipitaţii Vânt Presiune Umiditate
    00:00 +7°C° 0 mm 3 m/s 750 mmHg 82%
    01:00 +7°C° 0 mm 3 m/s 750 mmHg 87%
    02:00 +5°C° 0 mm 3 m/s 750 mmHg 92%
    03:00 +5°C° 0 mm 3 m/s 750 mmHg 93%
    04:00 +5°C° 0 mm 3 m/s 751 mmHg 93%
    05:00 +4°C° 0 mm 3 m/s 751 mmHg 94%
    06:00 +6°C° 0 mm 4 m/s 751 mmHg 86%
    07:00 +7°C° 0 mm 5 m/s 751 mmHg 79%
    08:00 +9°C° 0 mm 6 m/s 751 mmHg 72%
    09:00 +10°C° 0 mm 6 m/s 752 mmHg 65%
    10:00 +11°C° 0 mm 7 m/s 752 mmHg 58%
    11:00 +14°C° 0 mm 7 m/s 752 mmHg 51%
    12:00 +14°C° 0 mm 7 m/s 752 mmHg 48%
    13:00 +15°C° 0 mm 7 m/s 752 mmHg 46%
    14:00 +15°C° 0 mm 7 m/s 751 mmHg 43%
    15:00 +15°C° 0 mm 6 m/s 751 mmHg 43%
    16:00 +15°C° 0 mm 6 m/s 751 mmHg 44%
    17:00 +15°C° 0 mm 6 m/s 751 mmHg 44%
    18:00 +13°C° 0 mm 5 m/s 752 mmHg 49%
    19:00 +10°C° 0 mm 5 m/s 752 mmHg 54%
    20:00 +8°C° 0 mm 4 m/s 753 mmHg 59%
    21:00 +8°C° 0 mm 4 m/s 753 mmHg 60%
    22:00 +7°C° 0 mm 4 m/s 753 mmHg 61%
    23:00 +7°C° 0 mm 4 m/s 754 mmHg 61%

    23 Aprilie, Marţi

    Timp Temperatura Precipitaţii Vânt Presiune Umiditate
    00:00 +7°C° 0 mm 3 m/s 754 mmHg 64%
    01:00 +5°C° 0 mm 3 m/s 754 mmHg 66%
    02:00 +5°C° 0 mm 2 m/s 754 mmHg 69%
    03:00 +5°C° 0 mm 2 m/s 754 mmHg 70%
    04:00 +4°C° 0 mm 2 m/s 754 mmHg 72%
    05:00 +4°C° 0 mm 2 m/s 754 mmHg 73%
    06:00 +5°C° 0 mm 3 m/s 754 mmHg 66%
    07:00 +7°C° 0 mm 4 m/s 754 mmHg 59%
    08:00 +8°C° 0 mm 5 m/s 754 mmHg 52%
    09:00 +10°C° 0 mm 6 m/s 754 mmHg 48%
    10:00 +11°C° 0 mm 7 m/s 754 mmHg 45%
    11:00 +12°C° 0 mm 7 m/s 754 mmHg 41%
    12:00 +13°C° 0 mm 8 m/s 754 mmHg 42%
    13:00 +13°C° 0 mm 8 m/s 753 mmHg 43%
    14:00 +15°C° 0 mm 8 m/s 753 mmHg 44%
    15:00 +15°C° 0 mm 7 m/s 753 mmHg 46%
    16:00 +15°C° 0 mm 7 m/s 752 mmHg 48%
    17:00 +14°C° 0 mm 7 m/s 752 mmHg 50%
    18:00 +13°C° 0 mm 6 m/s 752 mmHg 54%
    19:00 +10°C° 0 mm 6 m/s 753 mmHg 58%
    20:00 +9°C° 0 mm 5 m/s 753 mmHg 62%
    21:00 +8°C° 0 mm 5 m/s 753 mmHg 64%
    22:00 +8°C° 0 mm 5 m/s 753 mmHg 65%
    23:00 +7°C° 0 mm 5 m/s 753 mmHg 66%
    Arată mai mult